Weather History for North Island, CA

Change the Weather History Date:

Tuesday, February 19, 2013

  Actual Average Record
Temperature  
Mean Temperature 55 °F -  
Max Temperature 59 °F 61 °F 73 °F (2000)
Min Temperature 51 °F 48 °F 45 °F (2002)
Degree Days  
Heating Degree Days 10    
Growing Degree Days 5 (Base 50)    
Moisture  
Dew Point 41 °F    
Average Humidity 59    
Maximum Humidity 77    
Minimum Humidity 46    
Precipitation  
Precipitation 0.15 in - - ()
Sea Level Pressure  
Sea Level Pressure 29.90 in    
Wind  
Wind Speed 8 mph (SW)    
Max Wind Speed 22 mph    
Max Gust Speed 33 mph    
Visibility 9 miles    
Events Rain    
Averages and records for this station are not official NWS values.
T = Trace of Precipitation, MM = Missing Value Source: NWS Daily Summary

Daily Weather History Graph

Daily Weather History Graph

Search for Another Location

Airport:

Trip Planner

Search our weather history database for the weather conditions in past years. The results will help you decide how hot, cold, wet, or windy it might be!

Date:

Astronomy

Feb. 19, 2013 Rise Set
Actual Time 6:27 AM PST 5:38 PM PST
Civil Twilight 6:02 AM PST 6:03 PM PST
Nautical Twilight 5:33 AM PST 6:32 PM PST
Astronomical Twilight 5:05 AM PST 7:00 PM PST
Moon 12:23 PM PST (2/19) 1:53 AM PST (2/19)
Length of Visible Light 12h 00m
Length of Day
11h 10m
Waxing Gibbous, 68% of the Moon is Illuminated
Feb 19
Waxing Gibbous
Feb 25
Full
Mar 4
Last Quarter
Mar 11
New
Mar 19
First Quarter

Hourly Weather History & Observations

Time (PST) Temp. Dew Point Humidity Pressure Visibility Wind Dir Wind Speed Gust Speed Precip Events Conditions
12:52 AM 55.9 °F 39.0 °F 53% 30.01 in 10.0 mi SSW 4.6 mph - N/A   Overcast
1:52 AM 55.9 °F 37.0 °F 49% 29.99 in 10.0 mi South 5.8 mph - N/A   Mostly Cloudy
2:52 AM 55.9 °F 37.9 °F 51% 29.97 in 10.0 mi South 3.5 mph - N/A   Overcast
3:52 AM 55.9 °F 39.0 °F 53% 29.96 in 10.0 mi SSW 4.6 mph - N/A   Overcast
4:52 AM 55.9 °F 39.0 °F 53% 29.97 in 10.0 mi Calm Calm - N/A   Overcast
5:52 AM 55.9 °F 37.9 °F 51% 29.97 in 10.0 mi SSW 10.4 mph - N/A   Overcast
6:52 AM 55.9 °F 37.0 °F 49% 29.97 in 10.0 mi SSW 4.6 mph - N/A   Overcast
7:52 AM 57.0 °F 39.0 °F 51% 29.97 in 10.0 mi SSW 3.5 mph - N/A   Overcast
8:52 AM 59.0 °F 39.0 °F 48% 29.96 in 10.0 mi South 6.9 mph - N/A   Mostly Cloudy
9:52 AM 57.9 °F 39.0 °F 49% 29.96 in 10.0 mi SW 6.9 mph - N/A   Overcast
10:52 AM 59.0 °F 37.9 °F 46% 29.96 in 10.0 mi WSW 9.2 mph - N/A   Overcast
11:43 AM 55.4 °F 44.6 °F 67% 29.95 in 8.0 mi West 10.4 mph - 0.00 in Rain Light Rain
11:52 AM 54.0 °F 45.0 °F 72% 29.95 in 7.0 mi West 10.4 mph - 0.00 in Rain Light Rain
12:19 PM 55.4 °F 46.4 °F 72% 29.94 in 8.0 mi WSW 10.4 mph - 0.00 in   Overcast
12:52 PM 59.0 °F 46.0 °F 62% 29.92 in 10.0 mi WSW 11.5 mph - 0.00 in   Mostly Cloudy
1:52 PM 55.9 °F 43.0 °F 62% 29.90 in 10.0 mi WSW 11.5 mph - N/A   Overcast
1:55 PM 55.4 °F 42.8 °F 63% 29.90 in 8.0 mi WSW 11.5 mph - 0.00 in Rain Light Rain
2:38 PM 57.2 °F 42.8 °F 59% 29.89 in 8.0 mi WSW 12.7 mph - 0.00 in   Mostly Cloudy
2:52 PM 57.0 °F 41.0 °F 55% 29.89 in 8.0 mi WSW 12.7 mph - 0.00 in   Mostly Cloudy
4:52 PM 57.0 °F 41.0 °F 55% 29.86 in 10.0 mi West 12.7 mph - N/A   Mostly Cloudy
5:00 PM - - N/A% - - North - - N/A   Unknown
5:52 PM 55.9 °F 41.0 °F 57% 29.85 in 10.0 mi WSW 13.8 mph - N/A   Mostly Cloudy
6:52 PM 55.0 °F 39.0 °F 55% 29.84 in 10.0 mi WSW 12.7 mph 21.9 mph N/A   Mostly Cloudy
7:52 PM 55.9 °F 39.9 °F 55% 29.84 in 10.0 mi WSW 12.7 mph 19.6 mph N/A   Mostly Cloudy
8:52 PM 55.9 °F 41.0 °F 57% 29.83 in 10.0 mi WSW 13.8 mph - N/A   Overcast
9:36 PM 53.6 °F 42.8 °F 67% 29.80 in 9.0 mi SW 12.7 mph - 0.00 in Rain Light Rain
9:52 PM 54.0 °F 42.1 °F 64% 29.80 in 8.0 mi SW 8.1 mph - 0.00 in Rain Light Rain
10:20 PM 51.8 °F 42.8 °F 71% 29.80 in 4.0 mi West 21.9 mph 33.4 mph 0.07 in Rain Rain
10:52 PM 51.1 °F 44.1 °F 77% 29.79 in 5.0 mi West 10.4 mph - 0.15 in Rain Rain
11:14 PM 51.8 °F 44.6 °F 76% 29.77 in 9.0 mi SW 9.2 mph - 0.00 in   Overcast
11:52 PM 53.1 °F 45.0 °F 74% 29.75 in 8.0 mi SW 16.1 mph - 0.00 in Rain Light Rain